This is the latest recevied weather packets stored in our database for station/object KJ4AJP. If no packets are shown the sender has not sent any weather packets the latest 10 day(s).
| Time | Temp. | Humidity | Pressure | Rain* | Wind** | Luminosity | Snow |
|---|---|---|---|---|---|---|---|
| 1777917231 | 26.11° C | 39% | 1010.8 hPa | 0 mm | - | 799 W/m² | - |
| 1777916929 | 26.11° C | 39% | 1011.1 hPa | 0 mm | - | 795 W/m² | - |
| 1777916626 | 26.11° C | 37% | 1011 hPa | 0 mm | - | 795 W/m² | - |
| 1777916323 | 26.11° C | 39% | 1011 hPa | 0 mm | - | 792 W/m² | - |
| 1777916020 | 26.67° C | 38% | 1011.1 hPa | 0 mm | - | 788 W/m² | - |
| 1777915717 | 26.67° C | 39% | 1011.2 hPa | 0 mm | - | 789 W/m² | - |
| 1777915413 | 26.11° C | 37% | 1011.3 hPa | 0 mm | - | 781 W/m² | - |
| 1777915109 | 26.11° C | 38% | 1011.1 hPa | 0 mm | - | 776 W/m² | - |
| 1777914807 | 26.11° C | 38% | 1011.1 hPa | 0 mm | - | 776 W/m² | - |
| 1777914504 | 26.11° C | 38% | 1011.5 hPa | 0 mm | - | 768 W/m² | - |
| 1777914201 | 26.11° C | 38% | 1011.6 hPa | 0 mm | - | 780 W/m² | - |
| 1777913897 | 26.67° C | 38% | 1011.5 hPa | 0 mm | - | 763 W/m² | - |
| 1777913594 | 26.11° C | 41% | 1011.5 hPa | 0 mm | - | 763 W/m² | - |
| 1777913290 | 26.11° C | 39% | 1011.6 hPa | 0 mm | - | 750 W/m² | - |
| 1777912987 | 26.11° C | 40% | 1011.6 hPa | 0 mm | - | 742 W/m² | - |
| 1777912683 | 26.11° C | 41% | 1011.7 hPa | 0 mm | - | 734 W/m² | - |
| 1777912379 | 26.11° C | 40% | 1011.7 hPa | 0 mm | - | 728 W/m² | - |
| 1777912075 | 25.56° C | 44% | 1011.6 hPa | 0 mm | - | 729 W/m² | - |
| 1777911771 | 25.56° C | 44% | 1011.7 hPa | 0 mm | - | 704 W/m² | - |
| 1777911468 | 25° C | 45% | 1011.8 hPa | 0 mm | - | 527 W/m² | - |
| 1777911165 | 25° C | 45% | 1012 hPa | 0 mm | - | 674 W/m² | - |
| 1777910863 | 25° C | 44% | 1012 hPa | 0 mm | - | 496 W/m² | - |
| 1777910559 | 25° C | 43% | 1012 hPa | 0 mm | - | 633 W/m² | - |
| 1777910256 | 25° C | 44% | 1012.2 hPa | 0 mm | - | 639 W/m² | - |
| 1777909953 | 24.44° C | 46% | 1012.3 hPa | 0 mm | - | 497 W/m² | - |
* Rain latest hour (hover to see other rain measurements)
** Current wind speed in m/s (hover to see current wind gust speed)